Location: Unspecified
(34.2690°N, 0.0000°E)
Time: 04:06:09
(UTC+00:00)

SL-24 R/B - Visible Passes

Search period start: 04 April 2026 00:00
Search period end: 14 April 2026 00:00
Orbit: 625 x 1070 km, 98.0° (Epoch: 29 March)

Date Brightness Start Highest point End Pass type
(mag) Time Alt. Az. Time Alt. Az. Time Alt. Az.
4 Apr 6.0 18:44:59 10° NE 18:49:36 22° E 18:53:51 10° SE visible
4 Apr 5.9 20:24:35 10° N 20:30:32 47° WNW 20:35:54 10° SW visible
5 Apr 5.4 20:11:45 10° N 20:17:51 60° WNW 20:23:18 10° SSW visible
6 Apr 5.0 19:58:57 10° N 20:05:08 77° WNW 20:10:36 10° SSW visible
7 Apr 4.7 19:46:15 10° NNE 19:52:23 83° ESE 19:57:47 10° S visible
7 Apr 7.7 21:29:31 10° NW 21:32:01 13° WNW 21:34:26 10° W visible
8 Apr 4.7 19:33:35 10° NNE 19:39:35 63° E 19:44:52 10° S visible
8 Apr 7.5 21:15:55 10° NNW 21:19:28 16° WNW 21:22:50 10° W visible
9 Apr 5.0 19:21:00 10° NNE 19:26:45 48° E 19:31:50 10° S visible
9 Apr 7.2 21:02:37 10° NNW 21:06:54 21° WNW 21:10:52 10° WSW visible
10 Apr 5.3 19:08:30 10° NNE 19:13:52 36° E 19:18:40 10° SSE visible
10 Apr 6.8 20:49:29 10° NNW 20:54:17 26° WNW 20:58:41 10° WSW visible
11 Apr 5.6 18:56:07 10° NE 19:00:57 27° E 19:05:20 10° SSE visible
11 Apr 6.4 20:36:27 10° N 20:41:39 33° WNW 20:46:20 10° SW visible
12 Apr 5.9 20:23:30 10° N 20:28:59 43° WNW 20:33:51 10° SW visible
13 Apr 5.3 20:10:38 10° N 20:16:17 56° WNW 20:21:15 10° SSW visible
